STARLINK-2519, 48305

Orbit data source: Space-Track

STARLINK-2519, 48305 is a payload satellite owned by SpaceX/Seattle (US) in LEO that was launched on Thu, 29 Apr 2021 UTC via an FALCON 9 launch vehicle from the Air Force Eastern Test Range (AFETR). Payloads include a variety of satellites, spacecraft, and rockets equipped with specific instruments for various scientific and technological missions. These include communications satellites like Starlink; space stations such as the ISS; scientific satellites like the Hubble; Earth observation satellites from companies like Planet Labs, Umbra, and HawkEye 360; GPS; miniature CubeSats for education and research; and military/defense satellites.

Loading next visibility...
STARLINK-2519 details
Identifier
48305, 2021-036AF
Orbit
LEO
Last TLE update1 day ago
Origin
Flag of USSpaceX/Seattle (US)
ManufacturerSpaceX/Seattle
MissionOperational Commercial Communications
Bus & MotorSTARLINK, Unknown motor
Mass260 kg wet, ~248 kg dry
Launch date (UTC)
2021-04-29 (4 years ago)
Launch vehicle
FALCON 9
Launch site
Air Force Eastern Test Range (AFETR)
Object type
Payload
Rocket body
Debris
Shape & HBRBox + 1 Pan, 8.86 m
Radar Cross Section13.562 m², Large (>1 m²)

Expand to show TLE details & history

TLE from 1 day ago
0 STARLINK-2519
1 48305U 21036AF  25035.48676043  .00000317  00000-0  40177-4 0  9999
2 48305  53.0561  79.8014 0002275  85.2159 274.9090 15.06393072208149
Epoch: 2025-02-04T11:40Z
Definitive object data (Epoch: 2025-02-04T11:40:56.101Z)
Latitude0.00001°
Longitude129.6763°
Altitude547.978 km
Speed7.589 km/s
True Right ascension05h 19m 12s
True Declination0° 00' 00"
Sunlit
Object was in full shadow at TLE epoch
Visualization TLE readout
Latitude48.39225°
Longitude-112.25212°
Altitude551.228 km
Speed7.593 km/s
Apparent Right ascension06h 42m 24s
Apparent Declination42° 46' 34"
Sunlit
Object is in full shadow
Visualization observer readout
Local Sidereal Time14:06:33
Azimuth315.203° NNW
Elevation13.514°
Doppler factor1
Orbital elements
Apogee altitude549.079 km
Perigee altitude545.928 km
Semi-major axis6,925.64 km
Eccentricity0.0002275
Inclination53.0561°
RAAN79.8014°
Arg. of periapsis85.2159°
True anomaly274.88303°
Mean anomaly274.909°
Eccentric anomaly274.89601°
Mean motion3.76577 °/min
BSTAR0.000040177
Orbital period95.6 mins
Loading maneuver chart data...
Loading historical data...
Loading historical data...
Loading historical data...
Loading historical data...
Loading historical data...
Loading historical data...
Loading historical data...

STARLINK-2519 Visibility forecast

Observer location: undefined°, undefined

Span
Click to sort rows by Start time (UTC) header in descending order
Start Az.
Max El. time (UTC)
Max El. Az.
Max El.
End time (UTC)
End Az.
7 mins2025-02-05 12:03:27.489Z314.929° NW2025-02-05 12:07:27.489Z80.784° E41.298°2025-02-05 12:10:27.489Z120.379° SE
6 mins2025-02-06 05:16:27.489Z230.514° WSW2025-02-06 05:19:27.489Z40.619° NE44.125°2025-02-06 05:22:27.489Z49.585° ENE
4 mins2025-02-06 06:57:27.489Z306.237° NW2025-02-06 06:59:27.489Z345.31° N19.406°2025-02-06 07:01:27.489Z19.825° NNE
4 mins2025-02-06 10:19:27.489Z355.948° N2025-02-06 10:20:27.489Z15.832° NNE19.716°2025-02-06 10:23:27.489Z68.151° E
5 mins2025-02-06 11:58:27.489Z309.864° NW2025-02-06 12:00:27.489Z308.818° NW44.434°2025-02-06 12:03:27.489Z130.987° SE
|